Data supplied by UK-AIR on 5/4/2008
All Data GMT hour ending 
Status: R =Ratified P=Provisional,P*=As supplied
,,Derry,,,,,,,,,,,,,,,,,,,,,,,
Date,time,"Carbon monoxide",status,unit,"PM10 particulate matter (Hourly measured)",status,unit,"Nitric oxide",status,unit,"Nitrogen dioxide",status,unit,"Nitrogen oxides as nitrogen dioxide",status,unit,"Ozone",status,unit,"Sulphur dioxide",status,unit
 
01-01-1999,01:00,0.5,R,mgm-3,10,R,ugm-3 (GRAV EQ),,,,,,,,,,68,R,ugm-3,,,
01-01-1999,02:00,0.5,R,mgm-3,5,R,ugm-3 (GRAV EQ),,,,,,,,,,68,R,ugm-3,,,
01-01-1999,03:00,0.6,R,mgm-3,8,R,ugm-3 (GRAV EQ),,,,,,,,,,64,R,ugm-3,,,
01-01-1999,04:00,0.6,R,mgm-3,5,R,ugm-3 (GRAV EQ),,,,,,,,,,58,R,ugm-3,,,
01-01-1999,05:00,0.3,R,mgm-3,7,R,ugm-3 (GRAV EQ),,,,,,,,,,66,R,ugm-3,,,
01-01-1999,06:00,0.3,R,mgm-3,10,R,ugm-3 (GRAV EQ),,,,,,,,,,64,R,ugm-3,,,
01-01-1999,07:00,0.3,R,mgm-3,8,R,ugm-3 (GRAV EQ),,,,,,,,,,66,R,ugm-3,,,
01-01-1999,08:00,0.2,R,mgm-3,3,R,ugm-3 (GRAV EQ),,,,,,,,,,68,R,ugm-3,,,
01-01-1999,09:00,0.3,R,mgm-3,7,R,ugm-3 (GRAV EQ),,,,,,,,,,66,R,ugm-3,,,
01-01-1999,10:00,0.5,R,mgm-3,5,R,ugm-3 (GRAV EQ),,,,,,,,,,68,R,ugm-3,,,
01-01-1999,11:00,0.5,R,mgm-3,9,R,ugm-3 (GRAV EQ),,,,,,,,,,66,R,ugm-3,,,
01-01-1999,12:00,0.3,R,mgm-3,14,R,ugm-3 (GRAV EQ),,,,,,,,,,62,R,ugm-3,,,
01-01-1999,13:00,0.3,R,mgm-3,17,R,ugm-3 (GRAV EQ),,,,,,,,,,62,R,ugm-3,,,
01-01-1999,14:00,0.6,R,mgm-3,17,R,ugm-3 (GRAV EQ),,,,,,,,,,62,R,ugm-3,,,
01-01-1999,15:00,0.6,R,mgm-3,27,R,ugm-3 (GRAV EQ),,,,,,,,,,58,R,ugm-3,,,
01-01-1999,16:00,0.5,R,mgm-3,23,R,ugm-3 (GRAV EQ),,,,,,,,,,56,R,ugm-3,,,
01-01-1999,17:00,0.5,R,mgm-3,26,R,ugm-3 (GRAV EQ),,,,,,,,,,56,R,ugm-3,,,
01-01-1999,18:00,0.3,R,mgm-3,22,R,ugm-3 (GRAV EQ),,,,,,,,,,52,R,ugm-3,,,
01-01-1999,19:00,0.5,R,mgm-3,14,R,ugm-3 (GRAV EQ),,,,,,,,,,54,R,ugm-3,,,
01-01-1999,20:00,0.6,R,mgm-3,12,R,ugm-3 (GRAV EQ),,,,,,,,,,58,R,ugm-3,,,
01-01-1999,21:00,0.5,R,mgm-3,9,R,ugm-3 (GRAV EQ),,,,,,,,,,66,R,ugm-3,,,
01-01-1999,22:00,0.5,R,mgm-3,3,R,ugm-3 (GRAV EQ),,,,,,,,,,66,R,ugm-3,,,
01-01-1999,23:00,0.3,R,mgm-3,1,R,ugm-3 (GRAV EQ),,,,,,,,,,70,R,ugm-3,,,
01-01-1999,24:00,0.3,R,mgm-3,3,R,ugm-3 (GRAV EQ),,,,,,,,,,76,R,ugm-3,,,
02-01-1999,01:00,0.7,R,mgm-3,8,R,ugm-3 (GRAV EQ),,,,,,,,,,78,R,ugm-3,,,
02-01-1999,02:00,0.3,R,mgm-3,13,R,ugm-3 (GRAV EQ),,,,,,,,,,68,R,ugm-3,,,
02-01-1999,03:00,0.5,R,mgm-3,18,R,ugm-3 (GRAV EQ),,,,,,,,,,66,R,ugm-3,,,
02-01-1999,04:00,0.3,R,mgm-3,9,R,ugm-3 (GRAV EQ),,,,,,,,,,60,R,ugm-3,,,
02-01-1999,05:00,0.3,R,mgm-3,4,R,ugm-3 (GRAV EQ),,,,,,,,,,60,R,ugm-3,,,
02-01-1999,06:00,0.3,R,mgm-3,3,R,ugm-3 (GRAV EQ),,,,,,,,,,66,R,ugm-3,,,
02-01-1999,07:00,0.3,R,mgm-3,9,R,ugm-3 (GRAV EQ),,,,,,,,,,72,R,ugm-3,,,
02-01-1999,08:00,0.3,R,mgm-3,7,R,ugm-3 (GRAV EQ),,,,,,,,,,70,R,ugm-3,,,
02-01-1999,09:00,0.3,R,mgm-3,9,R,ugm-3 (GRAV EQ),,,,,,,,,,70,R,ugm-3,,,
02-01-1999,10:00,0.3,R,mgm-3,13,R,ugm-3 (GRAV EQ),,,,,,,,,,70,R,ugm-3,,,
02-01-1999,11:00,0.2,R,mgm-3,21,R,ugm-3 (GRAV EQ),,,,,,,,,,56,R,ugm-3,,,
02-01-1999,12:00,0.2,R,mgm-3,23,R,ugm-3 (GRAV EQ),,,,,,,,,,60,R,ugm-3,,,
02-01-1999,13:00,0.5,R,mgm-3,21,R,ugm-3 (GRAV EQ),,,,,,,,,,58,R,ugm-3,,,
02-01-1999,14:00,0.5,R,mgm-3,34,R,ugm-3 (GRAV EQ),,,,,,,,,,52,R,ugm-3,,,
02-01-1999,15:00,0.7,R,mgm-3,29,R,ugm-3 (GRAV EQ),,,,,,,,,,48,R,ugm-3,,,
02-01-1999,16:00,0.7,R,mgm-3,30,R,ugm-3 (GRAV EQ),,,,,,,,,,54,R,ugm-3,,,
02-01-1999,17:00,0.6,R,mgm-3,43,R,ugm-3 (GRAV EQ),,,,,,,,,,50,R,ugm-3,,,
02-01-1999,18:00,0.7,R,mgm-3,35,R,ugm-3 (GRAV EQ),,,,,,,,,,48,R,ugm-3,,,
02-01-1999,19:00,0.7,R,mgm-3,44,R,ugm-3 (GRAV EQ),,,,,,,,,,56,R,ugm-3,,,
02-01-1999,20:00,0.6,R,mgm-3,47,R,ugm-3 (GRAV EQ),,,,,,,,,,56,R,ugm-3,,,
02-01-1999,21:00,0.5,R,mgm-3,43,R,ugm-3 (GRAV EQ),,,,,,,,,,58,R,ugm-3,,,
02-01-1999,22:00,0.6,R,mgm-3,39,R,ugm-3 (GRAV EQ),,,,,,,,,,58,R,ugm-3,,,
02-01-1999,23:00,0.6,R,mgm-3,33,R,ugm-3 (GRAV EQ),,,,,,,,,,54,R,ugm-3,,,
02-01-1999,24:00,0.6,R,mgm-3,31,R,ugm-3 (GRAV EQ),,,,,,,,,,62,R,ugm-3,,,
03-01-1999,01:00,0.3,R,mgm-3,16,R,ugm-3 (GRAV EQ),,,,,,,,,,68,R,ugm-3,,,
03-01-1999,02:00,,,,20,R,ugm-3 (GRAV EQ),,,,,,,,,,60,R,ugm-3,,,
03-01-1999,03:00,0.5,R,mgm-3,26,R,ugm-3 (GRAV EQ),,,,,,,,,,62,R,ugm-3,,,
03-01-1999,04:00,0.5,R,mgm-3,18,R,ugm-3 (GRAV EQ),,,,,,,,,,64,R,ugm-3,,,
03-01-1999,05:00,,,,16,R,ugm-3 (GRAV EQ),,,,,,,,,,68,R,ugm-3,,,
03-01-1999,06:00,0.3,R,mgm-3,16,R,ugm-3 (GRAV EQ),,,,,,,,,,66,R,ugm-3,,,
03-01-1999,07:00,0.5,R,mgm-3,17,R,ugm-3 (GRAV EQ),,,,,,,,,,68,R,ugm-3,,,
03-01-1999,08:00,0.3,R,mgm-3,17,R,ugm-3 (GRAV EQ),,,,,,,,,,70,R,ugm-3,,,
03-01-1999,09:00,0.3,R,mgm-3,25,R,ugm-3 (GRAV EQ),,,,,,,,,,70,R,ugm-3,,,
03-01-1999,10:00,0.5,R,mgm-3,33,R,ugm-3 (GRAV EQ),,,,,,,,,,58,R,ugm-3,,,
03-01-1999,11:00,0.3,R,mgm-3,38,R,ugm-3 (GRAV EQ),,,,,,,,,,64,R,ugm-3,,,
03-01-1999,12:00,0.3,R,mgm-3,27,R,ugm-3 (GRAV EQ),,,,,,,,,,62,R,ugm-3,,,
03-01-1999,13:00,0.6,R,mgm-3,52,R,ugm-3 (GRAV EQ),,,,,,,,,,66,R,ugm-3,,,
03-01-1999,14:00,0.6,R,mgm-3,21,R,ugm-3 (GRAV EQ),,,,,,,,,,58,R,ugm-3,,,
03-01-1999,15:00,0.7,R,mgm-3,38,R,ugm-3 (GRAV EQ),,,,,,,,,,58,R,ugm-3,,,
03-01-1999,16:00,0.7,R,mgm-3,43,R,ugm-3 (GRAV EQ),,,,,,,,,,50,R,ugm-3,,,
03-01-1999,17:00,0.6,R,mgm-3,39,R,ugm-3 (GRAV EQ),,,,,,,,,,54,R,ugm-3,,,
03-01-1999,18:00,0.5,R,mgm-3,25,R,ugm-3 (GRAV EQ),,,,,,,,,,60,R,ugm-3,,,
03-01-1999,19:00,0.5,R,mgm-3,10,R,ugm-3 (GRAV EQ),,,,,,,,,,64,R,ugm-3,,,
03-01-1999,20:00,0.5,R,mgm-3,1,R,ugm-3 (GRAV EQ),,,,,,,,,,72,R,ugm-3,,,
03-01-1999,21:00,0.5,R,mgm-3,7,R,ugm-3 (GRAV EQ),,,,,,,,,,66,R,ugm-3,,,
03-01-1999,22:00,0.5,R,mgm-3,16,R,ugm-3 (GRAV EQ),,,,,,,,,,68,R,ugm-3,,,
03-01-1999,23:00,0.6,R,mgm-3,21,R,ugm-3 (GRAV EQ),,,,,,,,,,62,R,ugm-3,,,
03-01-1999,24:00,0.5,R,mgm-3,10,R,ugm-3 (GRAV EQ),,,,,,,,,,66,R,ugm-3,,,
04-01-1999,01:00,0.5,R,mgm-3,23,R,ugm-3 (GRAV EQ),,,,,,,,,,72,R,ugm-3,,,
04-01-1999,02:00,,,,26,R,ugm-3 (GRAV EQ),,,,,,,,,,70,R,ugm-3,,,
04-01-1999,03:00,0.3,R,mgm-3,25,R,ugm-3 (GRAV EQ),,,,,,,,,,70,R,ugm-3,,,
04-01-1999,04:00,0.3,R,mgm-3,26,R,ugm-3 (GRAV EQ),,,,,,,,,,72,R,ugm-3,,,
04-01-1999,05:00,0.3,R,mgm-3,26,R,ugm-3 (GRAV EQ),,,,,,,,,,72,R,ugm-3,,,
04-01-1999,06:00,0.2,R,mgm-3,34,R,ugm-3 (GRAV EQ),,,,,,,,,,74,R,ugm-3,,,
04-01-1999,07:00,0.5,R,mgm-3,40,R,ugm-3 (GRAV EQ),,,,,,,,,,78,R,ugm-3,,,
04-01-1999,08:00,0.3,R,mgm-3,33,R,ugm-3 (GRAV EQ),,,,,,,,,,76,R,ugm-3,,,
04-01-1999,09:00,0.6,R,mgm-3,33,R,ugm-3 (GRAV EQ),,,,,,,,,,74,R,ugm-3,,,
04-01-1999,10:00,0.3,R,mgm-3,38,R,ugm-3 (GRAV EQ),,,,,,,,,,72,R,ugm-3,,,
04-01-1999,11:00,0.2,R,mgm-3,42,R,ugm-3 (GRAV EQ),,,,,,,,,,76,R,ugm-3,,,
04-01-1999,12:00,0.5,R,mgm-3,47,R,ugm-3 (GRAV EQ),,,,,,,,,,70,R,ugm-3,,,
04-01-1999,13:00,0.2,R,mgm-3,51,R,ugm-3 (GRAV EQ),,,,,,,,,,70,R,ugm-3,,,
04-01-1999,14:00,0.3,R,mgm-3,33,R,ugm-3 (GRAV EQ),,,,,,,,,,74,R,ugm-3,,,
04-01-1999,15:00,0.3,R,mgm-3,48,R,ugm-3 (GRAV EQ),,,,,,,,,,70,R,ugm-3,,,
04-01-1999,16:00,0.5,R,mgm-3,52,R,ugm-3 (GRAV EQ),,,,,,,,,,68,R,ugm-3,,,
04-01-1999,17:00,0.6,R,mgm-3,57,R,ugm-3 (GRAV EQ),,,,,,,,,,62,R,ugm-3,,,
04-01-1999,18:00,0.7,R,mgm-3,66,R,ugm-3 (GRAV EQ),,,,,,,,,,54,R,ugm-3,,,
04-01-1999,19:00,0.7,R,mgm-3,69,R,ugm-3 (GRAV EQ),,,,,,,,,,52,R,ugm-3,,,
04-01-1999,20:00,0.6,R,mgm-3,56,R,ugm-3 (GRAV EQ),,,,,,,,,,52,R,ugm-3,,,
04-01-1999,21:00,0.6,R,mgm-3,65,R,ugm-3 (GRAV EQ),,,,,,,,,,52,R,ugm-3,,,
04-01-1999,22:00,0.7,R,mgm-3,55,R,ugm-3 (GRAV EQ),,,,,,,,,,58,R,ugm-3,,,
04-01-1999,23:00,0.7,R,mgm-3,44,R,ugm-3 (GRAV EQ),,,,,,,,,,54,R,ugm-3,,,
04-01-1999,24:00,0.7,R,mgm-3,47,R,ugm-3 (GRAV EQ),,,,,,,,,,48,R,ugm-3,,,
05-01-1999,01:00,0.7,R,mgm-3,44,R,ugm-3 (GRAV EQ),,,,,,,,,,44,R,ugm-3,,,
05-01-1999,02:00,0.6,R,mgm-3,38,R,ugm-3 (GRAV EQ),,,,,,,,,,50,R,ugm-3,,,
05-01-1999,03:00,0.6,R,mgm-3,21,R,ugm-3 (GRAV EQ),,,,,,,,,,58,R,ugm-3,,,
05-01-1999,04:00,0.3,R,mgm-3,5,R,ugm-3 (GRAV EQ),,,,,,,,,,74,R,ugm-3,,,
05-01-1999,05:00,0.5,R,mgm-3,4,R,ugm-3 (GRAV EQ),,,,,,,,,,72,R,ugm-3,,,
05-01-1999,06:00,0.5,R,mgm-3,1,R,ugm-3 (GRAV EQ),,,,,,,,,,68,R,ugm-3,,,
05-01-1999,07:00,0.3,R,mgm-3,3,R,ugm-3 (GRAV EQ),,,,,,,,,,62,R,ugm-3,,,
05-01-1999,08:00,,,,3,R,ugm-3 (GRAV EQ),,,,,,,,,,56,R,ugm-3,,,
05-01-1999,09:00,0.5,R,mgm-3,7,R,ugm-3 (GRAV EQ),,,,,,,,,,38,R,ugm-3,,,
05-01-1999,10:00,0.6,R,mgm-3,14,R,ugm-3 (GRAV EQ),,,,,,,,,,22,R,ugm-3,,,
05-01-1999,11:00,0.3,R,mgm-3,14,R,ugm-3 (GRAV EQ),,,,,,,,,,30,R,ugm-3,,,
05-01-1999,12:00,0.5,R,mgm-3,21,R,ugm-3 (GRAV EQ),,,,,,,,,,32,R,ugm-3,,,
05-01-1999,13:00,0.5,R,mgm-3,22,R,ugm-3 (GRAV EQ),,,,,,,,,,16,R,ugm-3,,,
05-01-1999,14:00,0.7,R,mgm-3,26,R,ugm-3 (GRAV EQ),,,,,,,,,,20,R,ugm-3,,,
05-01-1999,15:00,0.5,R,mgm-3,14,R,ugm-3 (GRAV EQ),,,,,,,,,,30,R,ugm-3,,,
05-01-1999,16:00,0.8,R,mgm-3,33,R,ugm-3 (GRAV EQ),,,,,,,,,,14,R,ugm-3,,,
05-01-1999,17:00,1.2,R,mgm-3,78,R,ugm-3 (GRAV EQ),,,,,,,,,,10,R,ugm-3,,,
05-01-1999,18:00,1.7,R,mgm-3,103,R,ugm-3 (GRAV EQ),,,,,,,,,,12,R,ugm-3,,,
05-01-1999,19:00,2.3,R,mgm-3,157,R,ugm-3 (GRAV EQ),,,,,,,,,,16,R,ugm-3,,,
05-01-1999,20:00,2.7,R,mgm-3,183,R,ugm-3 (GRAV EQ),,,,,,,,,,18,R,ugm-3,,,
05-01-1999,21:00,1.4,R,mgm-3,109,R,ugm-3 (GRAV EQ),,,,,,,,,,10,R,ugm-3,,,
05-01-1999,22:00,1.7,R,mgm-3,109,R,ugm-3 (GRAV EQ),,,,,,,,,,14,R,ugm-3,,,
05-01-1999,23:00,1.4,R,mgm-3,94,R,ugm-3 (GRAV EQ),,,,,,,,,,10,R,ugm-3,,,
05-01-1999,24:00,1.0,R,mgm-3,33,R,ugm-3 (GRAV EQ),,,,,,,,,,32,R,ugm-3,,,
06-01-1999,01:00,0.5,R,mgm-3,3,R,ugm-3 (GRAV EQ),,,,,,,,,,48,R,ugm-3,,,
06-01-1999,02:00,0.7,R,mgm-3,9,R,ugm-3 (GRAV EQ),,,,,,,,,,48,R,ugm-3,,,
06-01-1999,03:00,0.7,R,mgm-3,8,R,ugm-3 (GRAV EQ),,,,,,,,,,50,R,ugm-3,,,
06-01-1999,04:00,0.5,R,mgm-3,4,R,ugm-3 (GRAV EQ),,,,,,,,,,56,R,ugm-3,,,
06-01-1999,05:00,0.3,R,mgm-3,5,R,ugm-3 (GRAV EQ),,,,,,,,,,58,R,ugm-3,,,
06-01-1999,06:00,0.5,R,mgm-3,7,R,ugm-3 (GRAV EQ),,,,,,,,,,56,R,ugm-3,,,
06-01-1999,07:00,0.2,R,mgm-3,3,R,ugm-3 (GRAV EQ),,,,,,,,,,54,R,ugm-3,,,
06-01-1999,08:00,0.6,R,mgm-3,8,R,ugm-3 (GRAV EQ),,,,,,,,,,34,R,ugm-3,,,
06-01-1999,09:00,0.6,R,mgm-3,13,R,ugm-3 (GRAV EQ),,,,,,,,,,30,R,ugm-3,,,
06-01-1999,10:00,0.8,R,mgm-3,27,R,ugm-3 (GRAV EQ),,,,,,,,,,26,R,ugm-3,,,
06-01-1999,11:00,0.7,R,mgm-3,43,R,ugm-3 (GRAV EQ),,,,,,,,,,28,R,ugm-3,,,
06-01-1999,12:00,0.6,R,mgm-3,27,R,ugm-3 (GRAV EQ),,,,,,,,,,34,R,ugm-3,,,
06-01-1999,13:00,0.6,R,mgm-3,30,R,ugm-3 (GRAV EQ),,,,,,,,,,36,R,ugm-3,,,
06-01-1999,14:00,0.8,R,mgm-3,36,R,ugm-3 (GRAV EQ),,,,,,,,,,32,R,ugm-3,,,
06-01-1999,15:00,1.2,R,mgm-3,43,R,ugm-3 (GRAV EQ),,,,,,,,,,28,R,ugm-3,,,
06-01-1999,16:00,0.8,R,mgm-3,73,R,ugm-3 (GRAV EQ),,,,,,,,,,34,R,ugm-3,,,
06-01-1999,17:00,1.3,R,mgm-3,90,R,ugm-3 (GRAV EQ),,,,,,,,,,26,R,ugm-3,,,
06-01-1999,18:00,1.2,R,mgm-3,95,R,ugm-3 (GRAV EQ),,,,,,,,,,26,R,ugm-3,,,
06-01-1999,19:00,1.2,R,mgm-3,77,R,ugm-3 (GRAV EQ),,,,,,,,,,26,R,ugm-3,,,
06-01-1999,20:00,1.3,R,mgm-3,101,R,ugm-3 (GRAV EQ),,,,,,,,,,28,R,ugm-3,,,
06-01-1999,21:00,1.3,R,mgm-3,83,R,ugm-3 (GRAV EQ),,,,,,,,,,24,R,ugm-3,,,
06-01-1999,22:00,1.4,R,mgm-3,78,R,ugm-3 (GRAV EQ),,,,,,,,,,22,R,ugm-3,,,
06-01-1999,23:00,0.9,R,mgm-3,44,R,ugm-3 (GRAV EQ),,,,,,,,,,32,R,ugm-3,,,
06-01-1999,24:00,0.9,R,mgm-3,31,R,ugm-3 (GRAV EQ),,,,,,,,,,36,R,ugm-3,,,
07-01-1999,01:00,0.8,R,mgm-3,26,R,ugm-3 (GRAV EQ),,,,,,,,,,36,R,ugm-3,,,
07-01-1999,02:00,0.9,R,mgm-3,23,R,ugm-3 (GRAV EQ),,,,,,,,,,36,R,ugm-3,,,
07-01-1999,03:00,0.6,R,mgm-3,12,R,ugm-3 (GRAV EQ),,,,,,,,,,50,R,ugm-3,,,
07-01-1999,04:00,0.6,R,mgm-3,5,R,ugm-3 (GRAV EQ),,,,,,,,,,52,R,ugm-3,,,
07-01-1999,05:00,0.6,R,mgm-3,4,R,ugm-3 (GRAV EQ),,,,,,,,,,50,R,ugm-3,,,
07-01-1999,06:00,0.3,R,mgm-3,4,R,ugm-3 (GRAV EQ),,,,,,,,,,52,R,ugm-3,,,
07-01-1999,07:00,0.3,R,mgm-3,5,R,ugm-3 (GRAV EQ),,,,,,,,,,46,R,ugm-3,,,
07-01-1999,08:00,1.2,R,mgm-3,16,R,ugm-3 (GRAV EQ),,,,,,,,,,22,R,ugm-3,,,
07-01-1999,09:00,1.3,R,mgm-3,18,R,ugm-3 (GRAV EQ),,,,,,,,,,8,R,ugm-3,,,
07-01-1999,10:00,1.2,R,mgm-3,29,R,ugm-3 (GRAV EQ),,,,,,,,,,8,R,ugm-3,,,
07-01-1999,11:00,0.9,R,mgm-3,29,R,ugm-3 (GRAV EQ),,,,,,,,,,24,R,ugm-3,,,
07-01-1999,12:00,0.7,R,mgm-3,40,R,ugm-3 (GRAV EQ),,,,,,,,,,26,R,ugm-3,,,
07-01-1999,13:00,0.8,R,mgm-3,38,R,ugm-3 (GRAV EQ),,,,,,,,,,34,R,ugm-3,,,
07-01-1999,14:00,1.0,R,mgm-3,55,R,ugm-3 (GRAV EQ),,,,,,,,,,30,R,ugm-3,,,
07-01-1999,15:00,1.0,R,mgm-3,36,R,ugm-3 (GRAV EQ),,,,,,,,,,32,R,ugm-3,,,
07-01-1999,16:00,1.0,R,mgm-3,72,R,ugm-3 (GRAV EQ),,,,,,,,,,24,R,ugm-3,,,
07-01-1999,17:00,1.4,R,mgm-3,116,R,ugm-3 (GRAV EQ),,,,,,,,,,22,R,ugm-3,,,
07-01-1999,18:00,1.4,R,mgm-3,120,R,ugm-3 (GRAV EQ),,,,,,,,,,28,R,ugm-3,,,
07-01-1999,19:00,1.4,R,mgm-3,101,R,ugm-3 (GRAV EQ),,,,,,,,,,28,R,ugm-3,,,
07-01-1999,20:00,1.3,R,mgm-3,81,R,ugm-3 (GRAV EQ),,,,,,,,,,30,R,ugm-3,,,
07-01-1999,21:00,1.0,R,mgm-3,57,R,ugm-3 (GRAV EQ),,,,,,,,,,38,R,ugm-3,,,
07-01-1999,22:00,1.2,R,mgm-3,39,R,ugm-3 (GRAV EQ),,,,,,,,,,40,R,ugm-3,,,
07-01-1999,23:00,0.8,R,mgm-3,25,R,ugm-3 (GRAV EQ),,,,,,,,,,42,R,ugm-3,,,
07-01-1999,24:00,0.9,R,mgm-3,26,R,ugm-3 (GRAV EQ),,,,,,,,,,52,R,ugm-3,,,
08-01-1999,01:00,0.7,R,mgm-3,17,R,ugm-3 (GRAV EQ),,,,,,,,,,54,R,ugm-3,,,
08-01-1999,02:00,1.3,R,mgm-3,29,R,ugm-3 (GRAV EQ),,,,,,,,,,24,R,ugm-3,,,
08-01-1999,03:00,1.5,R,mgm-3,29,R,ugm-3 (GRAV EQ),,,,,,,,,,24,R,ugm-3,,,
08-01-1999,04:00,1.5,R,mgm-3,22,R,ugm-3 (GRAV EQ),,,,,,,,,,22,R,ugm-3,,,
08-01-1999,05:00,1.0,R,mgm-3,23,R,ugm-3 (GRAV EQ),,,,,,,,,,24,R,ugm-3,,,
08-01-1999,06:00,0.7,R,mgm-3,21,R,ugm-3 (GRAV EQ),,,,,,,,,,22,R,ugm-3,,,
08-01-1999,07:00,1.0,R,mgm-3,40,R,ugm-3 (GRAV EQ),,,,,,,,,,14,R,ugm-3,,,
08-01-1999,08:00,1.6,R,mgm-3,43,R,ugm-3 (GRAV EQ),,,,,,,,,,10,R,ugm-3,,,
08-01-1999,09:00,4.8,R,mgm-3,96,R,ugm-3 (GRAV EQ),,,,,,,,,,14,R,ugm-3,,,
08-01-1999,10:00,3.9,R,mgm-3,124,R,ugm-3 (GRAV EQ),,,,,,,,,,20,R,ugm-3,,,
08-01-1999,11:00,1.4,R,mgm-3,77,R,ugm-3 (GRAV EQ),,,,,,,,,,12,R,ugm-3,,,
08-01-1999,12:00,0.7,R,mgm-3,55,R,ugm-3 (GRAV EQ),,,,,,,,,,22,R,ugm-3,,,
08-01-1999,13:00,0.9,R,mgm-3,57,R,ugm-3 (GRAV EQ),,,,,,,,,,18,R,ugm-3,,,
08-01-1999,14:00,1.3,R,mgm-3,65,R,ugm-3 (GRAV EQ),,,,,,,,,,20,R,ugm-3,,,
08-01-1999,15:00,1.0,R,mgm-3,68,R,ugm-3 (GRAV EQ),,,,,,,,,,14,R,ugm-3,,,
08-01-1999,16:00,1.4,R,mgm-3,78,R,ugm-3 (GRAV EQ),,,,,,,,,,12,R,ugm-3,,,
08-01-1999,17:00,2.6,R,mgm-3,177,R,ugm-3 (GRAV EQ),,,,,,,,,,20,R,ugm-3,,,
08-01-1999,18:00,2.9,R,mgm-3,178,R,ugm-3 (GRAV EQ),,,,,,,,,,22,R,ugm-3,,,
08-01-1999,19:00,2.1,R,mgm-3,137,R,ugm-3 (GRAV EQ),,,,,,,,,,20,R,ugm-3,,,
08-01-1999,20:00,3.4,R,mgm-3,251,R,ugm-3 (GRAV EQ),,,,,,,,,,28,R,ugm-3,,,
08-01-1999,21:00,3.5,R,mgm-3,259,R,ugm-3 (GRAV EQ),,,,,,,,,,32,R,ugm-3,,,
08-01-1999,22:00,2.1,R,mgm-3,100,R,ugm-3 (GRAV EQ),,,,,,,,,,14,R,ugm-3,,,
08-01-1999,23:00,3.8,R,mgm-3,187,R,ugm-3 (GRAV EQ),,,,,,,,,,24,R,ugm-3,,,
08-01-1999,24:00,1.3,R,mgm-3,38,R,ugm-3 (GRAV EQ),,,,,,,,,,24,R,ugm-3,,,
09-01-1999,01:00,,,,1,R,ugm-3 (GRAV EQ),,,,,,,,,,44,R,ugm-3,,,
09-01-1999,02:00,0.6,R,mgm-3,8,R,ugm-3 (GRAV EQ),,,,,,,,,,50,R,ugm-3,,,
09-01-1999,03:00,1.3,R,mgm-3,18,R,ugm-3 (GRAV EQ),,,,,,,,,,40,R,ugm-3,,,
09-01-1999,04:00,0.7,R,mgm-3,12,R,ugm-3 (GRAV EQ),,,,,,,,,,58,R,ugm-3,,,
09-01-1999,05:00,0.5,R,mgm-3,3,R,ugm-3 (GRAV EQ),,,,,,,,,,70,R,ugm-3,,,
09-01-1999,06:00,0.7,R,mgm-3,5,R,ugm-3 (GRAV EQ),,,,,,,,,,54,R,ugm-3,,,
09-01-1999,07:00,0.6,R,mgm-3,9,R,ugm-3 (GRAV EQ),,,,,,,,,,42,R,ugm-3,,,
09-01-1999,08:00,0.5,R,mgm-3,7,R,ugm-3 (GRAV EQ),,,,,,,,,,44,R,ugm-3,,,
09-01-1999,09:00,0.7,R,mgm-3,10,R,ugm-3 (GRAV EQ),,,,,,,,,,38,R,ugm-3,,,
09-01-1999,10:00,0.9,R,mgm-3,18,R,ugm-3 (GRAV EQ),,,,,,,,,,16,R,ugm-3,,,
09-01-1999,11:00,0.8,R,mgm-3,22,R,ugm-3 (GRAV EQ),,,,,,,,,,26,R,ugm-3,,,
09-01-1999,12:00,1.0,R,mgm-3,48,R,ugm-3 (GRAV EQ),,,,,,,,,,42,R,ugm-3,,,
09-01-1999,13:00,0.5,R,mgm-3,16,R,ugm-3 (GRAV EQ),,,,,,,,,,72,R,ugm-3,,,
09-01-1999,14:00,0.5,R,mgm-3,21,R,ugm-3 (GRAV EQ),,,,,,,,,,64,R,ugm-3,,,
09-01-1999,15:00,0.5,R,mgm-3,22,R,ugm-3 (GRAV EQ),,,,,,,,,,70,R,ugm-3,,,
09-01-1999,16:00,0.6,R,mgm-3,30,R,ugm-3 (GRAV EQ),,,,,,,,,,68,R,ugm-3,,,
09-01-1999,17:00,0.6,R,mgm-3,42,R,ugm-3 (GRAV EQ),,,,,,,,,,62,R,ugm-3,,,
09-01-1999,18:00,0.6,R,mgm-3,27,R,ugm-3 (GRAV EQ),,,,,,,,,,60,R,ugm-3,,,
09-01-1999,19:00,1.2,R,mgm-3,96,R,ugm-3 (GRAV EQ),,,,,,,,,,42,R,ugm-3,,,
09-01-1999,20:00,1.9,R,mgm-3,179,R,ugm-3 (GRAV EQ),,,,,,,,,,32,R,ugm-3,,,
09-01-1999,21:00,1.9,R,mgm-3,85,R,ugm-3 (GRAV EQ),,,,,,,,,,20,R,ugm-3,,,
09-01-1999,22:00,3.6,R,mgm-3,202,R,ugm-3 (GRAV EQ),,,,,,,,,,28,R,ugm-3,,,
09-01-1999,23:00,2.6,R,mgm-3,140,R,ugm-3 (GRAV EQ),,,,,,,,,,20,R,ugm-3,,,
09-01-1999,24:00,3.0,R,mgm-3,151,R,ugm-3 (GRAV EQ),,,,,,,,,,20,R,ugm-3,,,
10-01-1999,01:00,1.5,R,mgm-3,61,R,ugm-3 (GRAV EQ),,,,,,,,,,20,R,ugm-3,,,
10-01-1999,02:00,1.3,R,mgm-3,56,R,ugm-3 (GRAV EQ),,,,,,,,,,14,R,ugm-3,,,
10-01-1999,03:00,1.6,R,mgm-3,61,R,ugm-3 (GRAV EQ),,,,,,,,,,14,R,ugm-3,,,
10-01-1999,04:00,1.4,R,mgm-3,40,R,ugm-3 (GRAV EQ),,,,,,,,,,22,R,ugm-3,,,
10-01-1999,05:00,1.3,R,mgm-3,43,R,ugm-3 (GRAV EQ),,,,,,,,,,24,R,ugm-3,,,
10-01-1999,06:00,1.4,R,mgm-3,35,R,ugm-3 (GRAV EQ),,,,,,,,,,30,R,ugm-3,,,
10-01-1999,07:00,1.2,R,mgm-3,33,R,ugm-3 (GRAV EQ),,,,,,,,,,26,R,ugm-3,,,
10-01-1999,08:00,1.4,R,mgm-3,35,R,ugm-3 (GRAV EQ),,,,,,,,,,22,R,ugm-3,,,
10-01-1999,09:00,0.9,R,mgm-3,40,R,ugm-3 (GRAV EQ),,,,,,,,,,22,R,ugm-3,,,
10-01-1999,10:00,1.4,R,mgm-3,52,R,ugm-3 (GRAV EQ),,,,,,,,,,24,R,ugm-3,,,
10-01-1999,11:00,1.0,R,mgm-3,74,R,ugm-3 (GRAV EQ),,,,,,,,,,22,R,ugm-3,,,
10-01-1999,12:00,1.3,R,mgm-3,95,R,ugm-3 (GRAV EQ),,,,,,,,,,24,R,ugm-3,,,
10-01-1999,13:00,1.4,R,mgm-3,94,R,ugm-3 (GRAV EQ),,,,,,,,,,28,R,ugm-3,,,
10-01-1999,14:00,1.6,R,mgm-3,126,R,ugm-3 (GRAV EQ),,,,,,,,,,26,R,ugm-3,,,
10-01-1999,15:00,1.5,R,mgm-3,121,R,ugm-3 (GRAV EQ),,,,,,,,,,22,R,ugm-3,,,
10-01-1999,16:00,1.9,R,mgm-3,131,R,ugm-3 (GRAV EQ),,,,,,,,,,18,R,ugm-3,,,
10-01-1999,17:00,3.8,R,mgm-3,283,R,ugm-3 (GRAV EQ),,,,,,,,,,24,R,ugm-3,,,
10-01-1999,18:00,5.6,R,mgm-3,321,R,ugm-3 (GRAV EQ),,,,,,,,,,32,R,ugm-3,,,
10-01-1999,19:00,4.4,R,mgm-3,290,R,ugm-3 (GRAV EQ),,,,,,,,,,34,R,ugm-3,,,
10-01-1999,20:00,2.6,R,mgm-3,186,R,ugm-3 (GRAV EQ),,,,,,,,,,26,R,ugm-3,,,
10-01-1999,21:00,2.4,R,mgm-3,177,R,ugm-3 (GRAV EQ),,,,,,,,,,24,R,ugm-3,,,
10-01-1999,22:00,1.6,R,mgm-3,142,R,ugm-3 (GRAV EQ),,,,,,,,,,20,R,ugm-3,,,
10-01-1999,23:00,1.5,R,mgm-3,98,R,ugm-3 (GRAV EQ),,,,,,,,,,14,R,ugm-3,,,
10-01-1999,24:00,1.4,R,mgm-3,73,R,ugm-3 (GRAV EQ),,,,,,,,,,12,R,ugm-3,,,
11-01-1999,01:00,1.3,R,mgm-3,69,R,ugm-3 (GRAV EQ),,,,,,,,,,12,R,ugm-3,,,
11-01-1999,02:00,1.0,R,mgm-3,73,R,ugm-3 (GRAV EQ),,,,,,,,,,12,R,ugm-3,,,
11-01-1999,03:00,1.2,R,mgm-3,60,R,ugm-3 (GRAV EQ),,,,,,,,,,12,R,ugm-3,,,
11-01-1999,04:00,0.9,R,mgm-3,47,R,ugm-3 (GRAV EQ),,,,,,,,,,12,R,ugm-3,,,
11-01-1999,05:00,0.9,R,mgm-3,51,R,ugm-3 (GRAV EQ),,,,,,,,,,8,R,ugm-3,,,
11-01-1999,06:00,1.2,R,mgm-3,52,R,ugm-3 (GRAV EQ),,,,,,,,,,8,R,ugm-3,,,
11-01-1999,07:00,1.0,R,mgm-3,36,R,ugm-3 (GRAV EQ),,,,,,,,,,14,R,ugm-3,,,
11-01-1999,08:00,1.0,R,mgm-3,35,R,ugm-3 (GRAV EQ),,,,,,,,,,10,R,ugm-3,,,
11-01-1999,09:00,1.5,R,mgm-3,43,R,ugm-3 (GRAV EQ),,,,,,,,,,6,R,ugm-3,,,
11-01-1999,10:00,1.7,R,mgm-3,69,R,ugm-3 (GRAV EQ),,,,,,,,,,8,R,ugm-3,,,
11-01-1999,11:00,1.3,R,mgm-3,78,R,ugm-3 (GRAV EQ),,,,,,,,,,10,R,ugm-3,,,
11-01-1999,12:00,1.5,R,mgm-3,77,R,ugm-3 (GRAV EQ),,,,,,,,,,18,R,ugm-3,,,
11-01-1999,13:00,1.5,R,mgm-3,82,R,ugm-3 (GRAV EQ),,,,,,,,,,20,R,ugm-3,,,
11-01-1999,14:00,1.3,R,mgm-3,82,R,ugm-3 (GRAV EQ),,,,,,,,,,26,R,ugm-3,,,
11-01-1999,15:00,0.9,R,mgm-3,57,R,ugm-3 (GRAV EQ),,,,,,,,,,28,R,ugm-3,,,
11-01-1999,16:00,1.0,R,mgm-3,69,R,ugm-3 (GRAV EQ),,,,,,,,,,20,R,ugm-3,,,
11-01-1999,17:00,1.2,R,mgm-3,85,R,ugm-3 (GRAV EQ),,,,,,,,,,14,R,ugm-3,,,
11-01-1999,18:00,0.9,R,mgm-3,39,R,ugm-3 (GRAV EQ),,,,,,,,,,26,R,ugm-3,,,
11-01-1999,19:00,0.8,R,mgm-3,30,R,ugm-3 (GRAV EQ),,,,,,,,,,44,R,ugm-3,,,
11-01-1999,20:00,0.6,R,mgm-3,17,R,ugm-3 (GRAV EQ),,,,,,,,,,42,R,ugm-3,,,
11-01-1999,21:00,0.7,R,mgm-3,31,R,ugm-3 (GRAV EQ),,,,,,,,,,46,R,ugm-3,,,
11-01-1999,22:00,0.7,R,mgm-3,34,R,ugm-3 (GRAV EQ),,,,,,,,,,44,R,ugm-3,,,
11-01-1999,23:00,0.7,R,mgm-3,20,R,ugm-3 (GRAV EQ),,,,,,,,,,46,R,ugm-3,,,
11-01-1999,24:00,0.5,R,mgm-3,8,R,ugm-3 (GRAV EQ),,,,,,,,,,52,R,ugm-3,,,
12-01-1999,01:00,0.5,R,mgm-3,1,R,ugm-3 (GRAV EQ),,,,,,,,,,60,R,ugm-3,,,
12-01-1999,02:00,0.3,R,mgm-3,-3,R,ugm-3 (GRAV EQ),,,,,,,,,,60,R,ugm-3,,,
12-01-1999,03:00,0.6,R,mgm-3,,,,,,,,,,,,,62,R,ugm-3,,,
12-01-1999,04:00,0.3,R,mgm-3,,,,,,,,,,,,,64,R,ugm-3,,,
12-01-1999,05:00,0.3,R,mgm-3,-3,R,ugm-3 (GRAV EQ),,,,,,,,,,64,R,ugm-3,,,
12-01-1999,06:00,0.5,R,mgm-3,1,R,ugm-3 (GRAV EQ),,,,,,,,,,60,R,ugm-3,,,
12-01-1999,07:00,0.6,R,mgm-3,8,R,ugm-3 (GRAV EQ),,,,,,,,,,58,R,ugm-3,,,
12-01-1999,08:00,0.3,R,mgm-3,8,R,ugm-3 (GRAV EQ),,,,,,,,,,72,R,ugm-3,,,
12-01-1999,09:00,0.7,R,mgm-3,22,R,ugm-3 (GRAV EQ),,,,,,,,,,48,R,ugm-3,,,
12-01-1999,10:00,0.9,R,mgm-3,30,R,ugm-3 (GRAV EQ),,,,,,,,,,58,R,ugm-3,,,
12-01-1999,11:00,,,,,,,,,,,,,,,,,,,,,
12-01-1999,12:00,,,,12,R,ugm-3 (GRAV EQ),,,,,,,,,,52,R,ugm-3,,,
12-01-1999,13:00,0.6,R,mgm-3,18,R,ugm-3 (GRAV EQ),,,,,,,,,,58,R,ugm-3,,,
12-01-1999,14:00,0.5,R,mgm-3,27,R,ugm-3 (GRAV EQ),,,,,,,,,,56,R,ugm-3,,,
12-01-1999,15:00,0.3,R,mgm-3,20,R,ugm-3 (GRAV EQ),,,,,,,,,,60,R,ugm-3,,,
12-01-1999,16:00,0.5,R,mgm-3,23,R,ugm-3 (GRAV EQ),,,,,,,,,,54,R,ugm-3,,,
12-01-1999,17:00,0.6,R,mgm-3,34,R,ugm-3 (GRAV EQ),,,,,,,,,,50,R,ugm-3,,,
12-01-1999,18:00,0.6,R,mgm-3,40,R,ugm-3 (GRAV EQ),,,,,,,,,,48,R,ugm-3,,,
12-01-1999,19:00,0.6,R,mgm-3,35,R,ugm-3 (GRAV EQ),,,,,,,,,,60,R,ugm-3,,,
12-01-1999,20:00,0.6,R,mgm-3,35,R,ugm-3 (GRAV EQ),,,,,,,,,,64,R,ugm-3,,,
12-01-1999,21:00,1.2,R,mgm-3,78,R,ugm-3 (GRAV EQ),,,,,,,,,,46,R,ugm-3,,,
12-01-1999,22:00,1.0,R,mgm-3,69,R,ugm-3 (GRAV EQ),,,,,,,,,,46,R,ugm-3,,,
12-01-1999,23:00,0.6,R,mgm-3,39,R,ugm-3 (GRAV EQ),,,,,,,,,,56,R,ugm-3,,,
12-01-1999,24:00,0.6,R,mgm-3,27,R,ugm-3 (GRAV EQ),,,,,,,,,,66,R,ugm-3,,,
13-01-1999,01:00,1.3,R,mgm-3,55,R,ugm-3 (GRAV EQ),,,,,,,,,,50,R,ugm-3,,,
13-01-1999,02:00,0.6,R,mgm-3,39,R,ugm-3 (GRAV EQ),,,,,,,,,,60,R,ugm-3,,,
13-01-1999,03:00,0.5,R,mgm-3,26,R,ugm-3 (GRAV EQ),,,,,,,,,,66,R,ugm-3,,,
13-01-1999,04:00,0.5,R,mgm-3,22,R,ugm-3 (GRAV EQ),,,,,,,,,,70,R,ugm-3,,,
13-01-1999,05:00,0.5,R,mgm-3,17,R,ugm-3 (GRAV EQ),,,,,,,,,,62,R,ugm-3,,,
13-01-1999,06:00,0.5,R,mgm-3,17,R,ugm-3 (GRAV EQ),,,,,,,,,,62,R,ugm-3,,,
13-01-1999,07:00,0.3,R,mgm-3,13,R,ugm-3 (GRAV EQ),,,,,,,,,,56,R,ugm-3,,,
13-01-1999,08:00,0.5,R,mgm-3,9,R,ugm-3 (GRAV EQ),,,,,,,,,,54,R,ugm-3,,,
13-01-1999,09:00,0.6,R,mgm-3,7,R,ugm-3 (GRAV EQ),,,,,,,,,,44,R,ugm-3,,,
13-01-1999,10:00,0.5,R,mgm-3,8,R,ugm-3 (GRAV EQ),,,,,,,,,,52,R,ugm-3,,,
13-01-1999,11:00,0.3,R,mgm-3,21,R,ugm-3 (GRAV EQ),,,,,,,,,,44,R,ugm-3,,,
13-01-1999,12:00,0.5,R,mgm-3,35,R,ugm-3 (GRAV EQ),,,,,,,,,,48,R,ugm-3,,,
13-01-1999,13:00,0.3,R,mgm-3,38,R,ugm-3 (GRAV EQ),,,,,,,,,,70,R,ugm-3,,,
13-01-1999,14:00,0.3,R,mgm-3,35,R,ugm-3 (GRAV EQ),,,,,,,,,,74,R,ugm-3,,,
13-01-1999,15:00,0.3,R,mgm-3,59,R,ugm-3 (GRAV EQ),,,,,,,,,,70,R,ugm-3,,,
13-01-1999,16:00,0.5,R,mgm-3,53,R,ugm-3 (GRAV EQ),,,,,,,,,,62,R,ugm-3,,,
13-01-1999,17:00,0.5,R,mgm-3,55,R,ugm-3 (GRAV EQ),,,,,,,,,,62,R,ugm-3,,,
13-01-1999,18:00,0.3,R,mgm-3,40,R,ugm-3 (GRAV EQ),,,,,,,,,,66,R,ugm-3,,,
13-01-1999,19:00,0.5,R,mgm-3,31,R,ugm-3 (GRAV EQ),,,,,,,,,,68,R,ugm-3,,,
13-01-1999,20:00,0.5,R,mgm-3,36,R,ugm-3 (GRAV EQ),,,,,,,,,,68,R,ugm-3,,,
13-01-1999,21:00,0.5,R,mgm-3,31,R,ugm-3 (GRAV EQ),,,,,,,,,,70,R,ugm-3,,,
13-01-1999,22:00,0.5,R,mgm-3,30,R,ugm-3 (GRAV EQ),,,,,,,,,,72,R,ugm-3,,,
13-01-1999,23:00,0.3,R,mgm-3,25,R,ugm-3 (GRAV EQ),,,,,,,,,,68,R,ugm-3,,,
13-01-1999,24:00,0.5,R,mgm-3,29,R,ugm-3 (GRAV EQ),,,,,,,,,,66,R,ugm-3,,,
14-01-1999,01:00,0.3,R,mgm-3,30,R,ugm-3 (GRAV EQ),,,,,,,,,,70,R,ugm-3,,,
14-01-1999,02:00,0.5,R,mgm-3,21,R,ugm-3 (GRAV EQ),,,,,,,,,,64,R,ugm-3,,,
14-01-1999,03:00,0.5,R,mgm-3,20,R,ugm-3 (GRAV EQ),,,,,,,,,,66,R,ugm-3,,,
14-01-1999,04:00,0.3,R,mgm-3,18,R,ugm-3 (GRAV EQ),,,,,,,,,,66,R,ugm-3,,,
14-01-1999,05:00,0.3,R,mgm-3,14,R,ugm-3 (GRAV EQ),,,,,,,,,,66,R,ugm-3,,,
14-01-1999,06:00,0.5,R,mgm-3,13,R,ugm-3 (GRAV EQ),,,,,,,,,,62,R,ugm-3,,,
14-01-1999,07:00,0.5,R,mgm-3,9,R,ugm-3 (GRAV EQ),,,,,,,,,,58,R,ugm-3,,,
14-01-1999,08:00,0.5,R,mgm-3,12,R,ugm-3 (GRAV EQ),,,,,,,,,,50,R,ugm-3,,,
14-01-1999,09:00,0.7,R,mgm-3,21,R,ugm-3 (GRAV EQ),,,,,,,,,,40,R,ugm-3,,,
14-01-1999,10:00,0.6,R,mgm-3,18,R,ugm-3 (GRAV EQ),,,,,,,,,,44,R,ugm-3,,,
14-01-1999,11:00,0.6,R,mgm-3,20,R,ugm-3 (GRAV EQ),,,,,,,,,,52,R,ugm-3,,,
14-01-1999,12:00,0.6,R,mgm-3,20,R,ugm-3 (GRAV EQ),,,,,,,,,,44,R,ugm-3,,,
14-01-1999,13:00,0.5,R,mgm-3,35,R,ugm-3 (GRAV EQ),,,,,,,,,,60,R,ugm-3,,,